Location: Koyandy
(51.2807°N, 71.6556°E)
Time: 17:28:21
(UTC+00:00)

Daily predictions for brighter satellites

Satellite Brightness Start Highest point End
(mag) Time Altitude Azimuth Time Altitude Azimuth Time Altitude Azimuth
Cosmos 1833 Rocket 3.0 12:01:13 10° S 12:06:36 49° ESE 12:12:02 10° NE
Cosmos 1092 Rocket 4.1 12:01:13 10° N 12:07:32 61° ENE 12:13:47 10° SSE
ERBS 3.0 12:06:21 10° W 12:09:24 39° NNW 12:11:56 14° NE
COSMOS 2406 3.7 12:04:08 10° S 12:09:29 42° ESE 12:14:49 10° NE
Sich 1 3.3 12:07:49 10° N 12:11:57 44° ENE 12:16:05 10° SSE
USA 306 3.1 12:07:44 10° W 12:11:58 59° N 12:15:34 14° ENE
CZ-4C R/B 2.9 12:05:41 10° NW 12:12:28 63° NE 12:20:34 10° ESE
Cosmos 2219 Rocket 4.1 12:10:52 10° N 12:13:05 12° NNE 12:15:17 10° NE
Cosmos 2221 2.9 12:10:16 10° SSW 12:14:31 67° WNW 12:18:51 10° N
GEOS 3 Rocket 4.4 12:10:29 10° E 12:15:01 31° NNE 12:19:32 10° NW
Cosmos 1805 Rocket 3.5 12:11:50 10° N 12:16:08 60° ENE 12:20:25 10° SSE
USA 229 DEB 4.4 12:09:25 10° NW 12:16:39 68° SW 12:24:20 10° SSE
USA 229 4.4 12:09:31 10° NW 12:16:45 69° SW 12:24:26 10° SSE
Cosmos 1602 3.7 12:13:30 10° N 12:17:20 61° ENE 12:21:10 10° SSE
Cosmos 1939 Rocket 2.8 12:14:13 10° SSE 12:18:19 74° ENE 12:22:24 10° N
Spot 1 4.3 12:14:16 10° NNE 12:18:59 82° ESE 12:23:56 10° SSW
CZ-2C R/B 3.2 12:14:35 10° S 12:19:26 70° WSW 12:24:13 10° NNW
CZ-2C R/B 3.7 12:17:19 10° NE 12:21:19 22° E 12:25:17 10° SE
Cosmos 1842 Rocket 4.1 12:18:57 10° SSW 12:23:23 65° WNW 12:27:53 10° N
ATLAS 2AS CENTAUR R/B 3.9 12:19:10 10° WNW 12:26:03 33° N 12:31:44 13° NE
deb Chang Zheng 4 4.2 12:24:41 10° SE 12:28:31 32° ENE 12:32:21 10° N
Cosmos 1763 Rocket 3.4 12:23:36 10° SSW 12:28:41 84° ESE 12:33:51 10° NNE
Cosmos 1627 Rocket 4.4 12:23:26 10° N 12:29:39 73° ENE 12:35:45 10° SSE
CZ-4B R/B 3.5 12:24:44 10° SE 12:29:46 42° ENE 12:34:46 10° N
PAYLOAD B 4.3 12:25:08 10° SE 12:30:37 59° ENE 12:36:08 10° N
USA 307 3.1 12:26:52 10° W 12:31:05 59° N 12:33:55 20° ENE
H-2A R/B 2.1 12:27:02 10° SE 12:32:00 52° ENE 12:36:53 10° N
Meteor 2-21 4.4 12:28:10 10° N 12:34:17 71° ENE 12:40:18 10° SSE
Cosmos 2034 Rocket 4.2 12:29:20 10° SSW 12:35:29 76° WNW 12:41:42 10° N
Cosmos 841 Rocket 3.7 12:31:02 10° S 12:35:57 47° ESE 12:40:03 15° NE
USA 234 3.5 12:30:11 10° SE 12:36:43 72° SW 12:43:16 10° WNW
Cosmos 1782 2.9 12:33:18 10° S 12:37:10 51° E 12:41:00 10° NNE
Cosmos 2279 Rocket 4.4 12:31:45 10° SSE 12:37:26 40° E 12:43:09 10° NNE
SeaSat 1 4.1 12:34:07 10° NNE 12:38:13 27° NW 12:42:17 10° W
Cosmos 1937 Rocket 3.8 12:33:13 10° NNW 12:38:33 72° WSW 12:43:50 10° SSE
COSMOS 2455 3.2 12:32:55 10° S 12:38:39 49° ESE 12:43:00 18° NE
H-2A R/B 4.5 12:43:21 12° NNE 12:43:21 12° NNE 12:43:47 10° NNE
Cosmos 1125 Rocket 4.2 12:38:02 10° N 12:42:45 32° NE 12:46:19 15° ESE
Cosmos 1500 3.0 12:39:16 10° N 12:43:02 77° E 12:46:45 10° SSE
CZ-2D R/B 3.1 12:40:45 10° SSE 12:44:33 68° ENE 12:48:21 10° N
NOSS 2-2 (D) 4.5 12:40:05 10° NW 12:45:04 75° SW 12:52:04 10° SE
Cosmos 2360 Rocket 3.4 12:41:00 10° NNW 12:45:26 23° NE 12:46:49 21° ENE
Cosmos 372 Rocket 4.0 12:41:53 10° NNW 12:47:09 90° SW 12:52:25 10° SSE
SMAP 3.5 12:43:20 10° S 12:47:57 65° WSW 12:52:36 10° NNW
ATLAS CENTAUR R/B 3.5 12:45:05 10° WNW 12:48:21 20° NNW 12:51:06 13° NNE
Meteor 1-11 Rocket 4.4 12:43:35 10° N 12:48:31 30° ENE 12:53:30 10° SE
Meteor 1-26 Rocket 4.3 12:45:36 10° S 12:51:33 72° E 12:57:36 10° NNE
COSMO-SKYMED 1 3.3 12:50:01 25° NE 12:51:39 33° E 12:55:34 10° SSE
SL-24 R/B - RUBIN 2 4.1 12:48:36 10° NW 12:53:08 60° SW 12:57:23 10° SSE
USA 308 3.0 12:49:28 10° WNW 12:53:41 61° N 12:55:33 31° ENE
Cosmos 1634 Rocket 4.0 12:49:03 10° S 12:55:22 78° E 13:01:44 10° NNE
Lacrosse 5 rocket 1.1 12:52:10 10° WNW 12:56:02 70° NNE 12:57:57 29° ESE
Cosmos 44 Rocket 3.3 12:51:09 10° NW 12:56:06 62° NE 12:59:42 17° ESE
Cosmos 2026 Rocket 4.1 12:50:36 10° NNW 12:56:46 77° W 13:02:49 10° S
COSMOS 2428 4.4 12:54:03 10° N 12:57:19 15° NNE 12:57:50 15° NNE
Cosmos 1633 Rocket 3.0 12:54:21 10° N 12:58:42 60° ENE 13:03:02 10° SSE
YAOGAN 1 3.6 13:05:23 27° NE 13:05:23 27° NE 13:08:08 10° N
Cosmos 2322 Rocket 2.7 13:01:03 10° NNW 13:06:22 38° NE 13:08:17 30° E
Cosmos 1697 Rocket 4.3 13:01:52 10° NW 13:06:58 36° WSW 13:12:02 10° S
CZ-4 R/B 3.4 13:11:31 15° N 13:11:31 15° N 13:12:22 10° N
Cosmos 1151 Rocket 2.9 13:07:09 10° S 13:11:26 65° E 13:14:02 23° NNE
Cosmos 1980 Rocket 2.8 13:06:20 10° NW 13:11:56 60° WSW 13:17:27 10° SSE
ISS -2.0 13:08:55 10° W 13:11:57 30° SSW 13:14:01 16° SSE
Cosmos 1666 2.5 13:08:36 10° N 13:12:21 89° W 13:16:04 10° S
CZ-4 R/B 4.3 13:14:39 10° SSE 13:18:46 73° ENE 13:22:55 10° N
Cosmos 1655 Rocket 4.0 13:12:47 10° N 13:19:07 59° ENE 13:25:24 10° SSE
MOS 1-B Rocket 3.9 13:13:18 10° NNE 13:19:10 78° ESE 13:25:49 10° SSW
USA 305 2.8 13:15:37 10° WNW 13:19:52 69° NNE 13:20:40 54° ENE
Cosmos 540 Rocket 3.8 13:15:12 10° SW 13:20:16 65° WNW 13:24:07 18° NNE
Meteor 1-5 Rocket 4.4 13:15:13 10° NNW 13:21:15 84° W 13:27:09 10° S
Okean O Rocket 1.5 13:17:09 10° SSE 13:21:36 82° ENE 13:26:05 10° NNW
Meteor 1-14 Rocket 4.5 13:16:38 10° NNW 13:22:28 76° W 13:28:22 10° S
Meteor 2-8 Rocket 4.4 13:17:55 10° S 13:23:58 63° E 13:30:04 10° NNE
SL-16 R/B 2.2 13:19:12 10° NNW 13:24:50 60° NE 13:27:29 31° ESE
Cosmos 1666 Rocket 4.0 13:20:51 10° NNW 13:25:17 64° W 13:29:38 10° S
Landsat 5 4.1 13:27:18 39° SE 13:27:18 39° SE 13:30:10 10° S
Cosmos 2237 Rocket 4.2 13:24:55 10° N 13:27:01 12° NNE 13:27:01 12° NNE
SJ-11-01 4.2 13:23:07 10° SSE 13:27:53 88° WSW 13:32:39 10° NNW
Cosmos 2180 Rocket 4.4 13:21:38 10° S 13:27:55 70° E 13:34:09 10° NNE
Cosmos 1470 Rocket 3.4 13:24:09 10° N 13:28:37 72° ENE 13:33:05 10° SSE
Cosmos 2082 Rocket 2.1 13:24:26 10° SSW 13:30:08 87° WNW 13:33:10 29° NNE
Cosmos 1328 Rocket 3.4 13:27:05 10° S 13:31:31 75° E 13:32:44 47° NNE
Cosmos 1570 Rocket 3.9 13:27:02 10° SSW 13:32:15 74° ESE 13:34:05 41° NE
Cosmos 2298 Rocket 3.9 13:27:10 10° NNW 13:32:31 77° ENE 13:36:40 17° SSE
Cosmos 1814 Rocket 3.9 13:29:25 10° SSW 13:34:39 86° ESE 13:36:46 37° NNE
Cosmos 1812 3.2 13:33:18 10° SSW 13:37:07 60° WNW 13:38:40 32° N
Cosmos 2333 Rocket 3.4 13:32:40 10° NNW 13:36:39 26° NNE 13:36:39 26° NNE
SKYMED 2 3.5 13:38:37 46° NNE 13:39:53 88° WNW 13:44:14 10° SSW
ARGOS 3.4 13:38:08 10° S 13:43:32 70° WSW 13:48:57 10° NNW
Cosmos 1818 3.8 13:38:26 10° NW 13:43:54 68° SW 13:47:30 21° SSE
USA 267 3.3 13:41:52 39° NE 13:44:31 76° NNW 13:51:03 10° WSW
ERBS 4.3 13:43:00 10° WNW 13:44:31 21° NW 13:44:31 21° NW
ATLAS CENTAUR R/B 2.2 13:38:22 10° WSW 13:45:55 69° NNW 13:46:22 63° NNE
SL-16 R/B 4.4 13:45:35 10° N 13:46:41 10° N 13:46:50 10° N
NOAA 15 4.4 13:42:41 10° SSE 13:47:58 78° ENE 13:53:15 10° NNW
Cosmos 1833 Rocket 3.9 13:45:30 10° WSW 13:50:43 37° NW 13:54:08 19° N
USA 306 3.1 13:47:48 10° WNW 13:51:34 68° NW 13:51:34 68° NW
GEOS 3 Rocket 3.5 13:51:30 56° SE 13:52:41 88° NE 13:57:54 10° NW
COSMOS 2406 4.2 13:48:19 10° WSW 13:53:48 44° NW 13:57:02 23° N
Cosmos 2219 Rocket 3.6 13:54:05 10° NNW 13:57:08 24° N 13:57:08 24° N
CZ-4C R/B 3.8 13:54:16 10° NW 14:01:10 49° WSW 14:09:07 10° SSE
CZ-2C R/B 2.9 13:58:46 22° N 14:02:05 63° WNW 14:07:11 10° SSW
Cosmos 2208 Rocket 4.1 14:02:02 10° SSW 14:07:27 76° WNW 14:08:20 62° N
Cosmos 2150 Rocket 4.4 14:04:23 10° NNW 14:09:29 61° WSW 14:11:56 30° S
USA 307 3.9 14:06:55 10° WNW 14:09:56 45° WNW 14:09:56 45° WNW
H-2A R/B 4.1 14:07:26 10° SSW 14:11:43 26° W 14:15:55 10° NW
NOSS 3-4 (A) 4.1 14:09:43 10° NW 14:15:51 48° NNE 14:15:51 48° NNE
NOSS 3-4 (C) 4.1 14:09:49 10° NW 14:15:56 47° NNE 14:15:56 47° NNE
ATLAS 2AS CENTAUR R/B 3.6 14:12:09 10° NW 14:19:00 36° NNE 14:19:10 36° NNE
Cosmos 2237 4.3 14:16:52 10° NNW 14:22:02 73° NW 14:22:02 73° NW
COSMOS 2455 3.7 14:18:56 10° WSW 14:24:42 45° NW 14:26:09 39° N
Cosmos 1125 Rocket 4.3 14:19:58 10° NNW 14:25:02 50° WSW 14:26:43 36° SSW
COSMO-SKYMED 1 4.1 14:27:13 31° NW 14:27:47 33° WNW 14:31:40 10° SW
ATLAS CENTAUR R/B 4.1 14:25:58 10° NNW 14:27:12 14° NNW 14:27:12 14° NNW
Cosmos 2360 Rocket 2.8 14:24:36 10° NNW 14:28:37 47° NNW 14:28:37 47° NNW
Meteor 1-11 Rocket 4.4 14:26:47 10° NNW 14:32:12 51° W 14:37:42 10° S
Lacrosse 5 rocket 3.5 14:31:27 10° WNW 14:33:34 23° W 14:33:34 23° W
COSMOS 2428 4.5 14:37:44 10° NNW 14:39:50 22° N 14:39:50 22° N
Cosmos 2322 Rocket 3.0 14:45:07 10° NW 14:50:10 48° W 14:50:10 48° W
SL-16 R/B 3.9 15:03:49 10° NW 15:08:36 28° WSW 15:09:26 27° WSW
Cosmos 2082 Rocket 4.1 15:10:31 10° W 15:15:02 24° NW 15:15:02 24° NW
Cosmos 2333 Rocket 4.2 15:16:43 10° NNW 15:18:41 22° NW 15:18:41 22° NW
USA 267 4.2 15:29:13 41° NW 15:29:13 41° NW 15:33:34 10° WNW
CENTAUR R/B 4.2 22:22:48 30° E 22:22:48 30° E 22:26:59 10° NE
USA 238 DEB 3.9 23:17:09 65° ESE 23:17:09 65° ESE 23:23:40 10° NE
USA 238 3.9 23:17:14 65° ESE 23:17:14 65° ESE 23:23:45 10° NE
Cosmos 2297 Rocket 4.5 23:20:15 14° N 23:21:39 15° NNE 23:24:53 10° ENE
USA 215 3.3 23:18:22 10° ESE 23:24:48 71° NNE 23:24:48 71° NNE
Cosmos 2369 Rocket 3.2 23:28:36 36° SE 23:30:01 43° ESE 23:35:18 10° NE
Gblst 52 Del rocket 4.4 23:39:07 76° SE 23:39:07 76° SE 23:45:32 10° ENE
Cosmos 1634 Rocket 3.9 23:43:47 48° N 23:45:41 83° E 23:51:56 10° S
Cosmos 1943 Rocket 2.6 23:49:44 51° N 23:49:44 51° N 23:54:00 10° NNE
CZ-2C R/B 3.2 23:45:10 10° SE 23:50:29 57° ENE 23:53:08 29° N
COSMO-SKYMED 1 3.4 23:47:22 10° SE 23:51:14 48° E 23:51:14 48° E
